Regional Weather Roundup
Issued by NWS

Home | Current Version | Previous Version | Graphics & Text | Print | Product List | Glossary Off
Versions: 1 2 3 4 5 6 7 8 9 10 11 12 13 14 15 16 17 18 19 20 21 22 23 24 25 26 27 28 29 30 31 32 33 34 35 36 37 38 39 40 41 42 43 44 45 46 47 48 49 50

000
ASUS43 KMKX 261521
RWRWI

WISCONSIN REGIONAL WEATHER ROUNDUP
NATIONAL WEATHER SERVICE MILWAUKEE/SULLIVAN WI
1000 AM CDT SUN APR 26 2015

NOTE: "FAIR" INDICATES FEW OR NO CLOUDS BELOW 12,000 FEET WITH NO
SIGNIFICANT WEATHER AND/OR OBSTRUCTIONS TO VISIBILITY.

WIZ001-002-006>008-014>016-023>028-261600-
NORTHWEST WISCONSIN

CITY           SKY/WX    TMP DP  RH WIND       PRES   REMARKS
SUPERIOR ARPT    N/A     43  23  46 NE7       30.18S
ASHLAND        SUNNY     47  22  37 NE8       30.18R
HAYWARD        SUNNY     47  21  35 NE7       30.14R
SIREN          SUNNY     46  21  36 E5        30.14S
CUMBERLAND     SUNNY     45  19  36 E5        30.13R
RICE LAKE      SUNNY     47  20  34 CALM      30.14S
CHETEK         SUNNY     47  21  35 E5        30.12S
LADYSMITH      SUNNY     49  20  33 E5        30.14S
EAU CLAIRE     SUNNY     46  22  38 E5        30.12R
MENOMONIE      SUNNY     50  22  33 N3        30.12S
NEW RICHMOND   SUNNY     49  20  32 SE3       30.13R
OSCEOLA        SUNNY     50  24  36 E5        30.16R
$$

WIZ003>005-009-010-017-018-261600-
NORTH CENTRAL WISCONSIN

CITY           SKY/WX    TMP DP  RH WIND       PRES   REMARKS
MANITOWISH WTR SUNNY     47  20  33 NE7       30.11R
ARBOR VITAE    SUNNY     49  20  31 N12G17    30.10R
WOODRUFF       SUNNY     49  20  31 N12G17    30.10R
RHINELANDER    SUNNY     47  19  33 VRB6      30.09R
EAGLE RIVER    SUNNY     48  16  27 N10G16    30.09R
LAND O LAKES   SUNNY     47  18  30 N10G16    30.10S
PHILLIPS       SUNNY     46  21  37 N6        30.11S
TOMAHAWK       SUNNY     46  21  36 CALM      30.10S
MEDFORD        SUNNY     46  23  39 E5        30.10R
MERRILL        SUNNY     49  22  34 NE5       30.08S
$$

WIZ029-030-035-036-043>047-261600-
CENTRAL WISCONSIN

CITY           SKY/WX    TMP DP  RH WIND       PRES   REMARKS
WAUSAU         SUNNY     49  23  36 NW8       30.07S
MOSINEE        SUNNY     48  21  34 N10       30.09S
MARSHFIELD     SUNNY     48  23  37 E8        30.09R
STEVENS POINT  SUNNY     47  20  34 CALM      30.09S
WAUPACA        SUNNY     52  21  29 N3        30.09S
WAUTOMA        SUNNY     49  19  30 E8        30.09R
WISC RAPIDS    SUNNY     49  19  30 VRB3      30.10S
CAMP DOUGLAS   SUNNY     48  23  37 E3        30.09R
$$

WIZ011>013-019>022-031-037>040-048>050-261600-
NORTHEAST WISCONSIN

CITY           SKY/WX    TMP DP  RH WIND       PRES   REMARKS
ANTIGO         SUNNY     46  24  41 NE8       30.08S
SHAWANO        SUNNY     52  23  32 CALM      30.08S
OCONTO         SUNNY     48  26  43 N5        30.07R
STURGEON BAY   SUNNY     43  28  56 NW6       30.09R
GREEN BAY      SUNNY     50  25  37 NE7       30.07R
MANITOWOC      SUNNY     48  28  46 N8        30.05S
APPLETON       SUNNY     46  23  39 N6        30.07R
CLINTONVILLE   SUNNY     50  21  32 N7        30.07S
OSHKOSH        SUNNY     48  25  40 NW8       30.07R
$$

WIZ032>034-041-042-053>061-261600-
SOUTHWEST WISCONSIN

CITY           SKY/WX    TMP DP  RH WIND       PRES   REMARKS
LA CROSSE      SUNNY     49  26  41 VRB3      30.11R
SPARTA         SUNNY     49  22  34 CALM        N/A
VIROQUA        SUNNY     48  25  41 E6        30.08R
BOSCOBEL       SUNNY     49  26  41 NE7       30.09R
PRAIRIE DU CHI SUNNY     47  24  39 CALM      30.09R
PLATTEVILLE    SUNNY     48  29  48 E12       30.07R
$$

WIZ056-057-062-063-064-067-068-261600-
SOUTH CENTRAL WISCONSIN

CITY           SKY/WX    TMP DP  RH WIND       PRES   REMARKS
REEDSBURG      SUNNY     46  26  45 E3        30.08S
BARABOO/DELLS  SUNNY     46  25  45 CALM      30.08S
LONE ROCK      SUNNY     47  27  45 SE5       30.09R
MINERAL POINT  SUNNY     46  28  49 NE9       30.07R
MADISON        MOSUNNY   48  29  47 N5        30.07R
MIDDLETON      SUNNY     47  29  49 N3        30.08R
WATERTOWN      SUNNY     47  29  49 N3        30.05R
MONROE         SUNNY     46  32  57 NE7       30.05R
JANESVILLE     SUNNY     50  27  40 E8        30.04S
$$

WIZ051-052-058>065-066-070>072-261600-
SOUTHEAST WISCONSIN

CITY           SKY/WX    TMP DP  RH WIND       PRES   REMARKS
MILWAUKEE      SUNNY     43  27  53 NE13      30.05R
WAUKESHA       SUNNY     46  27  46 NE6       30.04S
MILWAUKEE/TIMM SUNNY     48  25  40 NE5       30.05R
RACINE         SUNNY     44  30  57 N10G21    30.06R
BURLINGTON     SUNNY     48  26  41 N8        30.03S
KENOSHA        SUNNY     48  33  56 N10       30.04R
FOND DU LAC    SUNNY     48  28  46 N6        30.06S
SHEBOYGAN      SUNNY     48  28  46 N6        30.05R
WEST BEND      SUNNY     50  25  37 NW7       30.04R
JUNEAU         SUNNY     47  29  50 N6        30.07R
$$

LSZ147-162-261600-
LAKE SUPERIOR

STATION/POSITION TIME  TEMP    WIND        PRES    WAVE
                       AIR SEA DIR/SP/G            HT/PER
                 (UTC) (F)     (DEG/KT/KT) (MB)    (FT/S)
W MID LAKE BUOY  1450   36 35   30/ 12/ 12 1023.2R   1/ 3
DEVILS ISLAND    1500   37      70/  6/  7 1023.2R
PORT WING        1400   35     310/  4/  4 1022.0
SAXON HARBOR     1400   37        CALM     1021.0
$$

LMZ867-665-643>646-261600-
LAKE MICHIGAN

STATION/POSITION TIME  TEMP    WIND        PRES    WAVE
                       AIR SEA DIR/SP/G            HT/PER
                 (UTC) (F)     (DEG/KT/KT) (MB)    (FT/S)
CHAMBERS ISLAND  1400   40      10/  5/  6 1018.3R
NORTHPORT PIER   1400   38     310/  8/ 11 1017.9R
SISTER BAY       1347   42     340/ 15/ 17   N/A
KEWAUNEE LAKESHO 1400   44      30/  6/  9 1016.7R
SHEBOYGAN LAKESH 1500   40      30/ 10/ 11 1018.4R
PORT WASHINGTON  1440   43      50/ 11/ 12 1018.3R
MILWAUKEE LAKESH 1500   40      10/ 13/ 15   N/A
KENOSHA   LAKESH 1500   40      30/ 16/ 18 1017.3R
$$

TC  - TEMPERATURE IN CELSIUS
VSB - VISIBILITY IN STATUTE MILES
WCI - WIND CHILL INDEX
HX  - HEAT INDEX



USA.gov is the U.S. government's official web portal to all federal, state and local government web resources and services.